Regional Weather Roundup
Issued by NWS San Angelo, TX

Home | Current Version | Previous Version | Text Only | Print | Product List | Glossary On
Versions: 1 2 3 4 5 6 7 8 9 10 11 12 13 14 15 16 17 18 19 20 21 22 23 24 25 26 27 28 29 30 31 32 33 34 35 36 37 38 39 40 41 42 43 44 45 46 47 48 49 50
000
ASUS44 KSJT 131010
RWRSJT
WEST CENTRAL TEXAS REGIONAL WEATHER ROUNDUP
NATIONAL WEATHER SERVICE SAN ANGELO TX
400 AM CST WED DEC 13 2017

NOTE: "FAIR" INDICATES FEW OR NO CLOUDS BELOW 12,000 FEET WITH NO
SIGNIFICANT WEATHER AND/OR OBSTRUCTIONS TO VISIBILITY.

TXZ049-054-064>066-071>073-076>078-098-099-113-114-127-128-139-140-
154-155-168>170-131100
...LOCATIONS ACROSS WEST CENTRAL TEXAS...

CITY           SKY/WX    TMP DP  RH WIND       PRES   REMARKS
SAN ANGELO     CLEAR     28  21  75 W6        30.15F WCI  22
ABILENE        CLOUDY    36  19  50 S8        30.10F WCI  30
DYESS AFB      CLOUDY    29  18  63 S6        30.10F WCI  23
JUNCTION       CLOUDY    27  24  89 W3        30.18F
SWEETWATER     CLOUDY    41  18  40 SW14      30.14F WCI  33
BROWNWOOD      CLOUDY    23  16  74 CALM      30.14F
COLEMAN        CLOUDY    32  21  63 SW5       30.12F WCI  28
SONORA         CLOUDY    25  21  86 CALM      30.21F
OZONA          FAIR      27  23  86 MISG      30.21S
BRADY          NOT AVBL
$$

TEXAS PANHANDLE/OKLAHOMA PANHANDLE

CITY           SKY/WX    TMP DP  RH WIND       PRES   REMARKS
AMARILLO       CLOUDY    40  10  29 W7        30.04F WCI  35
BORGER         CLOUDY    43   9  24 W14       30.01F WCI  36
CANADIAN       CLEAR     43  11  28 W5        29.98S WCI  40
DALHART        CLOUDY    25  14  63 W6        30.03F WCI  18
DUMAS          CLOUDY    35  11  37 W12       30.01F WCI  27
GUYMON         NOT AVBL
HEREFORD       CLOUDY    30  12  47 MISG      30.06F
PAMPA          SUNNY     42  10  26 W15       30.01F WCI  34
PERRYTON       CLEAR     41  15  35 W7        29.96F WCI  36
$$

SOUTHERN PANHANDLE/SOUTH PLAINS/ROLLING PLAINS

CITY           SKY/WX    TMP DP  RH WIND       PRES   REMARKS
LUBBOCK        CLOUDY    28   9  44 W8        30.07F WCI  20
SNYDER         CLOUDY    32  19  58 SW8       30.12F WCI  24
CHILDRESS      CLOUDY    38  12  34 W8        30.02F WCI  32
SEMINOLE       CLOUDY    29  17  60 W6        30.13F WCI  23
$$

PERMIAN BASIN

CITY           SKY/WX    TMP DP  RH WIND       PRES   REMARKS
MIDLAND        CLOUDY    31  22  69 SW6       30.14F WCI  25
ODESSA         CLOUDY    33  21  61 SW6       30.15F WCI  28
WINK           CLOUDY    25  21  85 N3        30.14F
$$

FAR WEST/SOUTHWEST MOUNTAINS/TRANS PECOS

CITY           SKY/WX    TMP DP  RH WIND       PRES   REMARKS
ALPINE         CLOUDY    43  17  34 SW15      30.23F WCI  36
DRYDEN           N/A     40  29  64 W5        30.16F WCI  37
EL PASO        CLEAR     33  16  49 NE6       30.19F WCI  28
FORT STOCKTON  CLOUDY    41  22  46 SW10      30.15F WCI  35
GUADALUPE PASS CLOUDY    36  13  38 SW21      30.18F WCI  25
MARFA            N/A     26  18  71 N7        30.21F WCI  18
PECOS          CLOUDY    27  25  91 CALM      30.16F
$$

DALLAS/FORT WORTH METROPLEX

CITY           SKY/WX    TMP DP  RH WIND       PRES   REMARKS
DFW AIRPORT    CLEAR     38  29  70 S8        30.07F WCI  32
FTW MEACHAM    CLOUDY    40  30  67 S5        30.09F WCI  37
DAL-EXECUTIVE  PTCLDY    42  28  57 S5        30.09F WCI  39
GRAND PRAIRIE  CLOUDY    38  27  64 S6        30.12F WCI  33
ADDISON        PTCLDY    42  29  61 S6        30.11F WCI  38
MESQUITE       CLOUDY    32  26  79 S5        30.12F WCI  27
LANCASTER      CLOUDY    33  26  73 CALM      30.13F
$$

NORTH CENTRAL TEXAS

CITY           SKY/WX    TMP DP  RH WIND       PRES   REMARKS
SHRMAN/DENISON CLOUDY    43  29  56 S12       30.07F WCI  37
GAINESVILLE    CLOUDY    30  24  77 S5        30.07F WCI  25
BRIDGEPORT     CLOUDY    40  25  55 SW6       30.09F WCI  35
DENTON         CLOUDY    36  27  69 S6        30.08F WCI  31
WAXAHACHIE     CLOUDY    37  29  73 S3        30.12F
GRANBURY       CLOUDY    32  25  76 CALM      30.12F
$$

WESTERN NORTH TEXAS

CITY           SKY/WX    TMP DP  RH WIND       PRES   REMARKS
WICHITA FALLS  CLOUDY    39  20  46 SW15      30.02F WCI  31
VERNON         CLOUDY    38  11  33 SW9       30.03F WCI  31
BRECKENRIDGE   CLOUDY    40  20  45 S3        30.09F
COMANCHE       CLOUDY    43  23  45 SW8       30.11F WCI  38
$$

CENTRAL AND SOUTH CENTRAL TEXAS

CITY           SKY/WX    TMP DP  RH WIND       PRES   REMARKS
AUSTIN/BERGSTM CLOUDY    29  28  96 CALM      30.18S
WACO           CLOUDY    31  27  85 S8        30.14F WCI  23
HILLSBORO      CLOUDY    33  27  79 S3        30.12F
TEMPLE         PTCLDY    32  27  81 S5        30.16F WCI  27
KILLEEN-GRAY   CLOUDY    35  26  70 CALM      30.13F
FORT HOOD      CLOUDY    35  27  72 CALM      30.10F
GEORGETOWN     CLOUDY    32  28  85 SW3       30.17F
LAGO VISTA     FAIR      37  32  81 W8        30.16S WCI  31
SAN MARCOS     PTCLDY    33  28  81 NW5       30.19F WCI  29
NEW BRAUNFELS  CLOUDY    34  31  88 N7        30.16F WCI  28
RANDOLPH AFB   CLOUDY    38  30  73 CALM      30.18F
SAN ANTONIO    CLOUDY    39  30  70 W5        30.18F WCI  36
STINSON        CLOUDY    38  34  85 CALM      30.17F
PLEASANTON     NOT AVBL
LA GRANGE      PTCLDY    34  32  94 CALM      30.17R
GIDDINGS       CLOUDY    31  29  91 CALM      30.17F
$$

EAST TEXAS

CITY           SKY/WX    TMP DP  RH WIND       PRES   REMARKS
PARIS          CLOUDY    32  22  66 S6        30.09F WCI  26
CLARKSVILLE    NOT AVBL
TYLER          PTCLDY    31  28  89 S6        30.12F WCI  25
LONGVIEW       CLOUDY    31  26  82 S3        30.13F
PALESTINE      CLOUDY    30  29  96 CALM      30.16F
NACOGDOCHES    CLOUDY    25  23  92 CALM      30.16F
$$

TEXAS HILL COUNTRY AND EDWARDS PLATEAU

CITY           SKY/WX    TMP DP  RH WIND       PRES   REMARKS
LLANO          CLOUDY    28  27  93 CALM      30.20F
HORSESHOE BAY  FAIR      30  29  97 CALM      30.17F
KERRVILLE      CLOUDY    29  26  88 W3        30.17F
FREDERICKSBRG  CLEAR     28  24  86 CALM      30.17F
ROCKSPRINGS    NOT AVBL
HONDO          CLOUDY    37  29  72 N6        30.18F WCI  32
UVALDE         CLOUDY    37  32  80 CALM      30.20S
DEL RIO        CLOUDY    39  35  86 NW3       30.19S
$$

SOUTHEAST TEXAS

CITY           SKY/WX    TMP DP  RH WIND       PRES   REMARKS
COLLEGE STN    CLOUDY    33  29  85 W5        30.17F WCI  29
CALDWELL       CLOUDY    32  28  82 W3        30.17F
CROCKETT         N/A     27  23  86 CALM      30.19F
BRENHAM        PTCLDY    32  31  94 CALM      30.18S
HUNTSVILLE     CLOUDY    33  28  81 S3        30.16F
CONROE         PTCLDY    28  28 100 CALM      30.17F
HOUSTON BUSH   CLOUDY    35  32  88 CALM      30.18F
HOUSTON HOBBY  CLOUDY    35  33  92 CALM      30.18F
PERLAND        CLOUDY    34  32  92 CALM      30.19F
WHARTON        CLOUDY    33  31  92 CALM      30.20S
$$

THE UPPER TEXAS COAST

CITY           SKY/WX    TMP DP  RH WIND       PRES   REMARKS
ORANGE         CLOUDY    32  32 100 CALM      30.20F
PORT ARTHUR    CLOUDY    34  31  88 MISG      30.18F
GALVESTON      CLOUDY    48  41  76 N3        30.19F
ANGLETON       PTCLDY    33  31  92 CALM      30.18F
BAY CITY       CLOUDY    34  32  91 CALM      30.19S
$$

TEXAS COASTAL BEND, RIO GRANDE PLAINS DEEP SOUTH TEXAS

CITY           SKY/WX    TMP DP  RH WIND       PRES   REMARKS
VICTORIA       CLOUDY    34  30  85 N6        30.19F WCI  29
BEEVILLE       FAIR      41  32  70 CALM      30.19F
ROCKPORT       CLOUDY    43  38  82 N3        30.19F
PORT ARANSAS   NOT AVBL
PORT LAVACA    CLOUDY    38  32  79 N3        30.19F
CORPUS CHRISTI CLOUDY    42  39  89 NW5       30.19F WCI  39
KINGSVILLE NAS PTCLDY    41  38  89 NW6       30.20S WCI  37
COTULLA        MOCLDY    43  32  65 E5        30.20F
LAREDO           N/A    N/A N/A N/A MISG        N/A
BROWNSVILLE    CLEAR     44  43  96 NW3       30.20S
PORT ISABEL    CLEAR     44  40  85 W8        30.19S WCI  39
HEBBRONVILLE   MOSUNNY   44  32  63 CALM      30.21S
MCALLEN        PTCLDY    43  39  86 NW3       30.21F
WESLACO        CLOUDY    42  39  90 CALM      30.20S
FALFURRIAS     MOSUNNY   44  38  79 CALM      30.21S
EDINBURG       MOSUNNY   43  37  78 CALM      30.21S
$$




USA.gov is the U.S. government's official web portal to all federal, state and local government web resources and services.